When you browse on this site, cookies collect data to enhance your experience and personalize the content and advertising you see.
Visit our Privacy Policy to learn more. By continuing to use the site, you agree to this use of cookies and data.
  • In Romania
  • List of Countries
  • For 7 days
  • Water Temperature
  • Weather Map
  • Weather Widgets
  • user-avatar
    Login

    Hourly Weather Saint-Genis-Laval

    Today, 24 August, Saturday

    Time Temperature Precipitation Wind Pressure Humidity
    00:00 +19°C° 0 mm 1 mps 747 mmHg 76%
    01:00 +18°C° 0 mm 1 mps 746 mmHg 78%
    02:00 +18°C° 0 mm 1 mps 746 mmHg 80%
    03:00 +15°C° 0 mm 0 mps 746 mmHg 82%
    04:00 +16°C° 0 mm 0 mps 746 mmHg 81%
    05:00 +16°C° 0 mm 0 mps 746 mmHg 80%
    06:00 +19°C° 0 mm 1 mps 746 mmHg 82%
    07:00 +21°C° 0 mm 1 mps 746 mmHg 74%
    08:00 +23°C° 0 mm 1 mps 746 mmHg 67%
    09:00 +26°C° 0 mm 1 mps 746 mmHg 60%
    10:00 +27°C° 0 mm 1 mps 746 mmHg 54%
    11:00 +29°C° 0 mm 1 mps 745 mmHg 49%
    12:00 +31°C° 0 mm 1 mps 746 mmHg 44%
    13:00 +31°C° 0 mm 1 mps 745 mmHg 42%
    14:00 +32°C° 0 mm 1 mps 745 mmHg 40%
    15:00 +32°C° 0 mm 1 mps 745 mmHg 39%
    16:00 +30°C° 0 mm 1 mps 745 mmHg 46%
    17:00 +28°C° 0 mm 1 mps 744 mmHg 53%
    18:00 +26°C° 0 mm 1 mps 744 mmHg 60%
    19:00 +25°C° 0 mm 1 mps 745 mmHg 62%
    20:00 +22°C° 0 mm 0 mps 745 mmHg 64%
    21:00 +20°C° 0 mm 0 mps 745 mmHg 66%
    22:00 +20°C° 0 mm 0 mps 745 mmHg 67%
    23:00 +19°C° 0 mm 0 mps 745 mmHg 67%

    Tomorrow, 25 August, Sunday

    Time Temperature Precipitation Wind Pressure Humidity
    00:00 +19°C° 0 mm 0 mps 745 mmHg 68%
    01:00 +18°C° 0 mm 0 mps 745 mmHg 69%
    02:00 +20°C° 0 mm 1 mps 745 mmHg 70%
    03:00 +19°C° 0 mm 1 mps 745 mmHg 70%
    04:00 +18°C° 0 mm 0 mps 745 mmHg 70%
    05:00 +18°C° 0 mm 0 mps 745 mmHg 70%
    06:00 +18°C° 0 mm 0 mps 745 mmHg 70%
    07:00 +20°C° 0 mm 0 mps 745 mmHg 64%
    08:00 +24°C° 0 mm 1 mps 745 mmHg 58%
    09:00 +27°C° 0 mm 1 mps 745 mmHg 51%
    10:00 +28°C° 0 mm 1 mps 745 mmHg 47%
    11:00 +30°C° 0 mm 1 mps 745 mmHg 43%
    12:00 +31°C° 0 mm 1 mps 745 mmHg 39%
    13:00 +31°C° 0 mm 1 mps 745 mmHg 39%
    14:00 +32°C° 0 mm 1 mps 744 mmHg 38%
    15:00 +32°C° 0 mm 2 mps 744 mmHg 38%
    16:00 +30°C° 0 mm 1 mps 744 mmHg 44%
    17:00 +28°C° 0 mm 1 mps 744 mmHg 50%
    18:00 +26°C° 0 mm 1 mps 744 mmHg 57%
    19:00 +25°C° 0 mm 1 mps 745 mmHg 59%
    20:00 +24°C° 0 mm 1 mps 745 mmHg 61%
    21:00 +23°C° 0 mm 1 mps 745 mmHg 63%
    22:00 +22°C° 0 mm 1 mps 745 mmHg 65%
    23:00 +21°C° 0 mm 1 mps 745 mmHg 67%

    Day after tomorrow, 26 August, Monday

    Time Temperature Precipitation Wind Pressure Humidity
    00:00 +21°C° 0 mm 1 mps 745 mmHg 69%
    01:00 +18°C° 0 mm 0 mps 745 mmHg 71%
    02:00 +18°C° 0 mm 0 mps 745 mmHg 73%
    03:00 +17°C° 0 mm 0 mps 745 mmHg 75%
    04:00 +17°C° 0 mm 0 mps 745 mmHg 75%
    05:00 +17°C° 0 mm 0 mps 745 mmHg 74%
    06:00 +18°C° 0 mm 0 mps 745 mmHg 74%
    07:00 +20°C° 0 mm 0 mps 745 mmHg 67%
    08:00 +22°C° 0 mm 0 mps 745 mmHg 60%
    09:00 +26°C° 0 mm 1 mps 745 mmHg 53%
    10:00 +28°C° 0 mm 1 mps 744 mmHg 49%
    11:00 +29°C° 0 mm 1 mps 744 mmHg 45%
    12:00 +31°C° 0 mm 1 mps 744 mmHg 41%
    13:00 +31°C° 0 mm 1 mps 744 mmHg 39%
    14:00 +31°C° 0 mm 1 mps 743 mmHg 38%
    15:00 +32°C° 0 mm 1 mps 743 mmHg 36%
    16:00 +30°C° 0 mm 1 mps 743 mmHg 43%
    17:00 +28°C° 0 mm 1 mps 743 mmHg 49%
    18:00 +27°C° 0 mm 1 mps 743 mmHg 56%
    19:00 +25°C° 0 mm 1 mps 743 mmHg 57%
    20:00 +22°C° 0 mm 0 mps 744 mmHg 59%
    21:00 +21°C° 0 mm 0 mps 744 mmHg 60%
    22:00 +23°C° 0 mm 1 mps 744 mmHg 61%
    23:00 +22°C° 0 mm 1 mps 744 mmHg 62%

    27 August, Tuesday

    Time Temperature Precipitation Wind Pressure Humidity
    00:00 +22°C° 0 mm 1 mps 744 mmHg 63%
    01:00 +21°C° 0 mm 1 mps 744 mmHg 64%
    02:00 +21°C° 0 mm 1 mps 744 mmHg 66%
    03:00 +20°C° 0 mm 1 mps 744 mmHg 67%
    04:00 +21°C° 0 mm 1 mps 744 mmHg 68%
    05:00 +21°C° 0 mm 1 mps 744 mmHg 69%
    06:00 +21°C° 0 mm 1 mps 744 mmHg 69%
    07:00 +23°C° 0 mm 1 mps 744 mmHg 64%
    08:00 +25°C° 0 mm 1 mps 744 mmHg 58%
    09:00 +27°C° 0 mm 2 mps 744 mmHg 52%
    10:00 +29°C° 0 mm 2 mps 744 mmHg 47%
    11:00 +31°C° 0 mm 2 mps 744 mmHg 42%
    12:00 +34°C° 0 mm 2 mps 743 mmHg 38%
    13:00 +34°C° 0 mm 3 mps 743 mmHg 38%
    14:00 +34°C° 0 mm 3 mps 743 mmHg 39%
    15:00 +34°C° 0 mm 3 mps 743 mmHg 39%
    16:00 +31°C° 0 mm 3 mps 743 mmHg 44%
    17:00 +29°C° 0 mm 2 mps 743 mmHg 49%
    18:00 +28°C° 0 mm 2 mps 743 mmHg 54%
    19:00 +27°C° 0.1 mm 2 mps 743 mmHg 56%
    20:00 +26°C° 0.1 mm 2 mps 743 mmHg 58%
    21:00 +24°C° 0.1 mm 2 mps 744 mmHg 60%
    22:00 +24°C° 0 mm 2 mps 744 mmHg 61%
    23:00 +24°C° 0 mm 2 mps 744 mmHg 63%

    28 August, Wednesday

    Time Temperature Precipitation Wind Pressure Humidity
    00:00 +23°C° 0 mm 1 mps 743 mmHg 64%
    01:00 +23°C° 0 mm 1 mps 743 mmHg 67%
    02:00 +22°C° 0 mm 1 mps 743 mmHg 70%
    03:00 +22°C° 0 mm 1 mps 743 mmHg 73%
    04:00 +22°C° 0.1 mm 1 mps 743 mmHg 74%
    05:00 +22°C° 0.1 mm 1 mps 743 mmHg 75%
    06:00 +22°C° 0.1 mm 1 mps 743 mmHg 76%
    07:00 +23°C° 0 mm 1 mps 743 mmHg 70%
    08:00 +25°C° 0 mm 1 mps 743 mmHg 64%
    09:00 +27°C° 0 mm 2 mps 743 mmHg 58%
    10:00 +29°C° 0 mm 2 mps 743 mmHg 53%
    11:00 +30°C° 0 mm 2 mps 742 mmHg 48%
    12:00 +32°C° 0 mm 2 mps 742 mmHg 43%
    13:00 +32°C° 0 mm 2 mps 742 mmHg 42%
    14:00 +32°C° 0 mm 2 mps 742 mmHg 41%
    15:00 +32°C° 0 mm 2 mps 741 mmHg 41%
    16:00 +30°C° 0 mm 2 mps 741 mmHg 47%
    17:00 +29°C° 0 mm 2 mps 741 mmHg 54%
    18:00 +27°C° 0 mm 2 mps 742 mmHg 61%
    19:00 +26°C° 0.6 mm 2 mps 742 mmHg 66%
    20:00 +24°C° 0.6 mm 2 mps 742 mmHg 71%
    21:00 +21°C° 0.6 mm 2 mps 743 mmHg 77%
    22:00 +21°C° 0.2 mm 2 mps 743 mmHg 78%
    23:00 +22°C° 0.2 mm 1 mps 743 mmHg 80%

    29 August, Thursday

    Time Temperature Precipitation Wind Pressure Humidity
    00:00 +22°C° 0.2 mm 1 mps 743 mmHg 81%
    01:00 +21°C° 0.4 mm 1 mps 743 mmHg 84%
    02:00 +21°C° 0.4 mm 1 mps 743 mmHg 87%
    03:00 +20°C° 0.4 mm 1 mps 743 mmHg 89%
    04:00 +21°C° 0.1 mm 1 mps 744 mmHg 89%
    05:00 +21°C° 0.1 mm 1 mps 744 mmHg 89%
    06:00 +21°C° 0.1 mm 1 mps 744 mmHg 89%
    07:00 +22°C° 0 mm 1 mps 744 mmHg 83%
    08:00 +24°C° 0 mm 2 mps 745 mmHg 77%
    09:00 +25°C° 0 mm 2 mps 745 mmHg 71%
    10:00 +25°C° 0.1 mm 3 mps 745 mmHg 69%
    11:00 +26°C° 0.1 mm 4 mps 745 mmHg 67%
    12:00 +26°C° 0.1 mm 4 mps 745 mmHg 65%
    13:00 +26°C° 0 mm 4 mps 745 mmHg 64%
    14:00 +26°C° 0 mm 4 mps 744 mmHg 63%
    15:00 +26°C° 0 mm 4 mps 744 mmHg 62%
    16:00 +25°C° 0 mm 3 mps 745 mmHg 66%
    17:00 +24°C° 0 mm 3 mps 745 mmHg 70%
    18:00 +23°C° 0 mm 2 mps 745 mmHg 74%
    19:00 +21°C° 0 mm 2 mps 745 mmHg 77%
    20:00 +20°C° 0 mm 2 mps 746 mmHg 80%
    21:00 +20°C° 0 mm 2 mps 746 mmHg 83%
    22:00 +19°C° 0 mm 2 mps 746 mmHg 84%
    23:00 +19°C° 0 mm 2 mps 746 mmHg 85%
    Show more